| time (UTC) | temp F | wind direction | speed knots | gust knots | rain 1hr in | rain 24hr in | rain mn in | humidity % | barometer mb |
| 20260505035619 | 45 | 247 | 2.6 | 4.3 | 0.00 | 0.00 | 0.00 | 52 | 1008.4 |
| 20260505035115 | 46 | 234 | 4.3 | 7.0 | 0.00 | 0.00 | 0.00 | 51 | 1008.3 |
| 20260505034612 | 46 | 221 | 2.6 | 6.1 | 0.00 | 0.00 | 0.00 | 52 | 1008.4 |
| 20260505034109 | 46 | 229 | 1.7 | 4.3 | 0.00 | 0.00 | 0.00 | 51 | 1008.2 |
| 20260505033605 | 46 | 249 | 2.6 | 5.2 | 0.00 | 0.00 | 0.00 | 51 | 1008.4 |
| 20260505033104 | 46 | 190 | 6.1 | 7.8 | 0.00 | 0.00 | 0.00 | 51 | 1008.3 |
| 20260505032601 | 46 | 260 | 1.7 | 2.6 | 0.00 | 0.00 | 0.00 | 51 | 1008.4 |
| 20260505032057 | 46 | 205 | 0.9 | 4.3 | 0.00 | 0.00 | 0.00 | 50 | 1008.4 |
| 20260505031555 | 46 | 186 | 0.9 | 5.2 | 0.00 | 0.00 | 0.00 | 49 | 1008.4 |
| 20260505031051 | 46 | 246 | 0.9 | 2.6 | 0.00 | 0.00 | 0.00 | 50 | 1008.3 |
| 20260505030548 | 46 | 212 | 0.9 | 6.1 | 0.00 | 0.00 | 0.00 | 49 | 1008.6 |
| 20260505030044 | 46 | 231 | 2.6 | 2.6 | 0.00 | 0.00 | 0.00 | 49 | 1008.4 |
| 20260505025540 | 46 | 196 | 2.6 | 6.1 | 0.00 | 0.00 | 0.00 | 49 | 1008.3 |
| 20260505025039 | 46 | 204 | 3.5 | 7.0 | 0.00 | 0.00 | 0.00 | 49 | 1008.3 |
| 20260505024536 | 46 | 221 | 3.5 | 6.1 | 0.00 | 0.00 | 0.00 | 48 | 1008.3 |
| 20260505024033 | 46 | 180 | 0.9 | 4.3 | 0.00 | 0.00 | 0.00 | 49 | 1008.1 |
| 20260505023530 | 46 | 230 | 1.7 | 4.3 | 0.00 | 0.00 | 0.00 | 48 | 1008.0 |
| 20260505023028 | 46 | 250 | 2.6 | 5.2 | 0.00 | 0.00 | 0.00 | 48 | 1007.9 |
| 20260505022525 | 46 | 202 | 2.6 | 5.2 | 0.00 | 0.00 | 0.00 | 47 | 1008.0 |
| 20260505022022 | 47 | 236 | 0.9 | 1.7 | 0.00 | 0.00 | 0.00 | 48 | 1007.7 |
| 20260505021518 | 47 | 241 | 2.6 | 5.2 | 0.00 | 0.00 | 0.00 | 47 | 1007.6 |
| 20260505021015 | 47 | 229 | 3.5 | 6.1 | 0.00 | 0.00 | 0.00 | 47 | 1007.8 |
| 20260505020515 | 47 | 264 | 1.7 | 5.2 | 0.00 | 0.00 | 0.00 | 46 | 1007.6 |
| 20260505020012 | 47 | 243 | 2.6 | 6.1 | 0.00 | 0.00 | 0.00 | 46 | 1007.6 |
| 20260505015509 | 47 | 204 | 2.6 | 9.6 | 0.00 | 0.00 | 0.00 | 46 | 1007.6 |
| 20260505015006 | 47 | 203 | 3.5 | 5.2 | 0.00 | 0.00 | 0.00 | 46 | 1007.6 |
| 20260505014503 | 47 | 259 | 0.9 | 4.3 | 0.00 | 0.00 | 0.00 | 46 | 1007.5 |
| 20260505014000 | 48 | 234 | 2.6 | 11.3 | 0.00 | 0.00 | 0.00 | 46 | 1007.5 |
| 20260505013457 | 48 | 214 | 3.5 | 9.6 | 0.00 | 0.00 | 0.00 | 46 | 1007.2 |
| 20260505012954 | 48 | 181 | 2.6 | 9.6 | 0.00 | 0.00 | 0.00 | 46 | 1007.4 |
| 20260505012452 | 48 | 246 | 4.3 | 7.0 | 0.00 | 0.00 | 0.00 | 46 | 1007.1 |
| 20260505011949 | 48 | 228 | 5.2 | 12.2 | 0.00 | 0.00 | 0.00 | 47 | 1007.1 |
| 20260505011445 | 48 | 226 | 2.6 | 7.8 | 0.00 | 0.00 | 0.00 | 47 | 1006.8 |
| 20260505010942 | 49 | 238 | 3.5 | 9.6 | 0.00 | 0.00 | 0.00 | 46 | 1006.6 |
| 20260505010438 | 49 | 256 | 8.7 | 13.0 | 0.00 | 0.00 | 0.00 | 46 | 1006.6 |
| 20260505005934 | 49 | 246 | 9.6 | 13.0 | 0.00 | 0.00 | 0.00 | 46 | 1006.6 |
| 20260505005431 | 50 | 238 | 2.6 | 7.8 | 0.00 | 0.00 | 0.00 | 46 | 1006.5 |
| 20260505004929 | 50 | 220 | 4.3 | 11.3 | 0.00 | 0.00 | 0.00 | 46 | 1006.3 |
| 20260505004425 | 50 | 222 | 2.6 | 13.9 | 0.00 | 0.00 | 0.00 | 45 | 1006.2 |
| 20260505003922 | 51 | 229 | 2.6 | 8.7 | 0.00 | 0.00 | 0.00 | 45 | 1006.2 |
| 20260505003419 | 51 | 252 | 5.2 | 7.8 | 0.00 | 0.00 | 0.00 | 44 | 1006.2 |
| 20260505002915 | 51 | 269 | 3.5 | 7.8 | 0.00 | 0.00 | 0.00 | 44 | 1006.0 |
| 20260505002412 | 51 | 245 | 7.0 | 7.8 | 0.00 | 0.00 | 0.00 | 44 | 1006.0 |
| 20260505001910 | 51 | 223 | 4.3 | 12.2 | 0.00 | 0.00 | 0.00 | 44 | 1006.0 |
| 20260505001407 | 52 | 236 | 5.2 | 9.6 | 0.00 | 0.00 | 0.00 | 44 | 1005.9 |
| 20260505000904 | 52 | 180 | 5.2 | 7.8 | 0.00 | 0.00 | 0.00 | 44 | 1005.8 |
| 20260505000402 | 52 | 255 | 3.5 | 8.7 | 0.00 | 0.00 | 0.00 | 44 | 1005.8 |
| 20260504235858 | 52 | 172 | 4.3 | 7.8 | 0.00 | 0.00 | 0.00 | 44 | 1005.6 |
| 20260504235356 | 52 | 235 | 6.1 | 11.3 | 0.00 | 0.00 | 0.00 | 44 | 1005.7 |
| 20260504234852 | 52 | 250 | 5.2 | 7.8 | 0.00 | 0.00 | 0.00 | 44 | 1005.5 |
| 20260504234350 | 52 | 167 | 2.6 | 9.6 | 0.00 | 0.00 | 0.00 | 44 | 1005.6 |
| 20260504233846 | 52 | 284 | 6.1 | 9.6 | 0.00 | 0.00 | 0.00 | 44 | 1005.7 |
| 20260504233341 | 53 | 287 | 4.3 | 7.0 | 0.00 | 0.00 | 0.00 | 44 | 1005.3 |
| 20260504232839 | 53 | 219 | 7.8 | 9.6 | 0.00 | 0.00 | 0.00 | 44 | 1005.4 |
| 20260504232336 | 53 | 241 | 7.8 | 13.9 | 0.00 | 0.00 | 0.00 | 44 | 1005.2 |
| 20260504231832 | 53 | 275 | 7.8 | 13.0 | 0.00 | 0.00 | 0.00 | 44 | 1005.3 |
| 20260504231329 | 53 | 229 | 7.0 | 11.3 | 0.00 | 0.00 | 0.00 | 45 | 1005.2 |
| 20260504230825 | 53 | 199 | 7.8 | 14.8 | 0.00 | 0.00 | 0.00 | 45 | 1005.2 |
| 20260504230323 | 53 | 222 | 7.8 | 11.3 | 0.00 | 0.00 | 0.00 | 45 | 1005.2 |
| 20260504225822 | 53 | 233 | 5.2 | 13.0 | 0.00 | 0.00 | 0.00 | 45 | 1005.0 |
| 20260504225317 | 53 | 241 | 2.6 | 8.7 | 0.00 | 0.00 | 0.00 | 46 | 1005.0 |
| 20260504224815 | 54 | 118 | 2.6 | 7.8 | 0.00 | 0.00 | 0.00 | 46 | 1004.7 |
| 20260504224312 | 54 | 216 | 10.4 | 14.8 | 0.00 | 0.00 | 0.00 | 45 | 1004.8 |
| 20260504223809 | 55 | 140 | 2.6 | 13.0 | 0.00 | 0.00 | 0.00 | 45 | 1004.6 |
| 20260504223304 | 55 | 207 | 4.3 | 13.9 | 0.00 | 0.00 | 0.00 | 44 | 1004.4 |
| 20260504222801 | 55 | 229 | 7.8 | 12.2 | 0.00 | 0.00 | 0.00 | 44 | 1004.4 |
| 20260504222258 | 55 | 223 | 9.6 | 11.3 | 0.00 | 0.00 | 0.00 | 44 | 1004.4 |
| 20260504221756 | 55 | 302 | 4.3 | 9.6 | 0.00 | 0.00 | 0.00 | 44 | 1004.1 |
| 20260504221253 | 56 | 182 | 6.1 | 13.0 | 0.00 | 0.00 | 0.00 | 43 | 1004.1 |
| 20260504220749 | 56 | 245 | 1.7 | 7.8 | 0.00 | 0.00 | 0.00 | 43 | 1004.0 |
| 20260504220246 | 56 | 225 | 4.3 | 14.8 | 0.00 | 0.00 | 0.00 | 43 | 1003.7 |
| 20260504215744 | 56 | 207 | 5.2 | 8.7 | 0.00 | 0.00 | 0.00 | 43 | 1003.8 |
| 20260504215240 | 56 | 260 | 4.3 | 9.6 | 0.00 | 0.00 | 0.00 | 44 | 1003.9 |
| 20260504214736 | 56 | 279 | 4.3 | 12.2 | 0.00 | 0.00 | 0.00 | 44 | 1003.6 |
| 20260504214233 | 56 | 281 | 5.2 | 14.8 | 0.00 | 0.00 | 0.00 | 44 | 1003.7 |
| 20260504213729 | 56 | 270 | 4.3 | 9.6 | 0.00 | 0.00 | 0.00 | 44 | 1003.5 |
| 20260504213225 | 57 | 230 | 3.5 | 13.9 | 0.00 | 0.00 | 0.00 | 42 | 1003.3 |
| 20260504212722 | 58 | 262 | 10.4 | 13.0 | 0.00 | 0.00 | 0.00 | 39 | 1003.3 |
| 20260504212214 | 59 | 220 | 9.6 | 12.2 | 0.00 | 0.00 | 0.00 | 41 | 1003.1 |
| 20260504211711 | 59 | 237 | 6.1 | 7.8 | 0.00 | 0.00 | 0.00 | 40 | 1003.1 |
| 20260504211207 | 57 | 207 | 7.8 | 20.9 | 0.00 | 0.00 | 0.00 | 42 | 1003.1 |
| 20260504210705 | 58 | 158 | 7.0 | 13.9 | 0.00 | 0.00 | 0.00 | 41 | 1003.2 |
| 20260504210202 | 58 | 232 | 7.0 | 14.8 | 0.00 | 0.00 | 0.00 | 42 | 1003.3 |
| 20260504205659 | 58 | 245 | 4.3 | 8.7 | 0.00 | 0.00 | 0.00 | 43 | 1003.1 |
| 20260504205156 | 60 | 257 | 6.1 | 12.2 | 0.00 | 0.00 | 0.00 | 41 | 1003.0 |
| 20260504204654 | 57 | 131 | 3.5 | 7.8 | 0.00 | 0.00 | 0.00 | 43 | 1003.1 |
| 20260504204153 | 59 | 188 | 11.3 | 14.8 | 0.00 | 0.00 | 0.00 | 41 | 1003.2 |
| 20260504203651 | 59 | 237 | 4.3 | 14.8 | 0.00 | 0.00 | 0.00 | 40 | 1003.0 |
| 20260504203148 | 60 | 242 | 6.1 | 13.9 | 0.00 | 0.00 | 0.00 | 42 | 1003.0 |
| 20260504202643 | 60 | 235 | 7.0 | 13.9 | 0.00 | 0.00 | 0.00 | 42 | 1002.8 |
| 20260504202140 | 59 | 202 | 7.0 | 18.2 | 0.00 | 0.00 | 0.00 | 44 | 1002.8 |
| 20260504201637 | 59 | 125 | 1.7 | 13.0 | 0.00 | 0.00 | 0.00 | 44 | 1002.8 |
| 20260504201135 | 60 | 229 | 6.1 | 12.2 | 0.00 | 0.00 | 0.00 | 44 | 1002.8 |
| 20260504200632 | 60 | 215 | 3.5 | 13.9 | 0.00 | 0.00 | 0.00 | 43 | 1002.6 |
| 20260504200128 | 60 | 154 | 6.1 | 11.3 | 0.00 | 0.00 | 0.00 | 44 | 1002.5 |
| 20260504195624 | 59 | 176 | 2.6 | 14.8 | 0.00 | 0.00 | 0.00 | 44 | 1002.6 |
| 20260504195121 | 60 | 236 | 7.8 | 13.0 | 0.00 | 0.00 | 0.00 | 44 | 1002.7 |
| 20260504194618 | 60 | 296 | 6.1 | 14.8 | 0.00 | 0.00 | 0.00 | 44 | 1002.4 |
| 20260504194113 | 60 | 200 | 5.2 | 13.9 | 0.00 | 0.00 | 0.00 | 44 | 1002.5 |
| 20260504193609 | 61 | 247 | 4.3 | 13.0 | 0.00 | 0.00 | 0.00 | 43 | 1002.4 |
| 20260504193108 | 60 | 234 | 9.6 | 14.8 | 0.00 | 0.00 | 0.00 | 44 | 1002.3 |
| 20260504192606 | 61 | 229 | 7.0 | 14.8 | 0.00 | 0.00 | 0.00 | 44 | 1002.2 |
| 20260504192104 | 61 | 257 | 6.1 | 11.3 | 0.00 | 0.00 | 0.00 | 44 | 1002.5 |
| 20260504191602 | 60 | 243 | 7.8 | 15.6 | 0.00 | 0.00 | 0.00 | 43 | 1002.2 |
| 20260504191058 | 61 | 226 | 8.7 | 11.3 | 0.00 | 0.00 | 0.00 | 42 | 1002.0 |
| 20260504190554 | 60 | 216 | 9.6 | 13.9 | 0.00 | 0.00 | 0.00 | 42 | 1001.9 |
| 20260504190050 | 60 | 249 | 5.2 | 13.0 | 0.00 | 0.00 | 0.00 | 40 | 1002.0 |
| 20260504185548 | 60 | 215 | 5.2 | 9.6 | 0.00 | 0.00 | 0.00 | 40 | 1002.0 |
| 20260504185044 | 61 | 193 | 2.6 | 9.6 | 0.00 | 0.00 | 0.00 | 40 | 1001.6 |
| 20260504184539 | 62 | 191 | 0.9 | 13.0 | 0.00 | 0.00 | 0.00 | 39 | 1001.7 |
| 20260504184035 | 61 | 210 | 5.2 | 12.2 | 0.00 | 0.00 | 0.00 | 40 | 1001.2 |
| 20260504183532 | 61 | 228 | 4.3 | 13.9 | 0.00 | 0.00 | 0.00 | 40 | 1001.6 |
| 20260504183030 | 61 | 182 | 8.7 | 15.6 | 0.00 | 0.00 | 0.00 | 39 | 1001.7 |
| 20260504182527 | 61 | 175 | 2.6 | 7.0 | 0.00 | 0.00 | 0.00 | 40 | 1001.5 |
| 20260504182024 | 62 | 238 | 4.3 | 13.0 | 0.00 | 0.00 | 0.00 | 39 | 1001.4 |
| 20260504181521 | 62 | 235 | 4.3 | 9.6 | 0.00 | 0.00 | 0.00 | 42 | 1001.2 |
| 20260504181020 | 62 | 243 | 5.2 | 11.3 | 0.00 | 0.00 | 0.00 | 41 | 1001.2 |
| 20260504180518 | 61 | 160 | 6.1 | 11.3 | 0.00 | 0.00 | 0.00 | 42 | 1001.2 |
| 20260504180017 | 62 | 116 | 4.3 | 13.0 | 0.00 | 0.00 | 0.00 | 42 | 1001.1 |
| 20260504175513 | 62 | 227 | 10.4 | 14.8 | 0.00 | 0.00 | 0.00 | 42 | 1001.1 |
| 20260504175010 | 61 | 151 | 6.1 | 13.0 | 0.00 | 0.00 | 0.00 | 43 | 1001.1 |
| 20260504174508 | 61 | 255 | 7.8 | 13.0 | 0.00 | 0.00 | 0.00 | 44 | 1001.1 |
| 20260504174005 | 61 | 237 | 3.5 | 9.6 | 0.00 | 0.00 | 0.00 | 44 | 1001.1 |
| 20260504173502 | 61 | 353 | 6.1 | 7.8 | 0.00 | 0.00 | 0.00 | 44 | 1001.1 |
| 20260504172959 | 60 | 214 | 4.3 | 13.9 | 0.00 | 0.00 | 0.00 | 45 | 1001.1 |
| 20260504172455 | 61 | 179 | 7.0 | 13.9 | 0.00 | 0.00 | 0.00 | 44 | 1000.9 |
| 20260504171952 | 61 | 262 | 6.1 | 19.1 | 0.00 | 0.00 | 0.00 | 44 | 1001.0 |
| 20260504171449 | 61 | 243 | 1.7 | 11.3 | 0.00 | 0.00 | 0.00 | 44 | 1000.9 |
| 20260504170946 | 61 | 160 | 7.0 | 13.9 | 0.00 | 0.00 | 0.00 | 43 | 1000.8 |
| 20260504170442 | 61 | 238 | 6.1 | 13.9 | 0.00 | 0.00 | 0.00 | 44 | 1000.9 |
| 20260504160401 | 61 | 236 | 7.8 | 15.6 | 0.00 | 0.00 | 0.00 | 43 | 1000.6 |
| 20260504150825 | 60 | 234 | 5.2 | 11.3 | 0.00 | 0.00 | 0.00 | 43 | 1000.2 |
| 20260504150322 | 59 | 173 | 8.7 | 12.2 | 0.00 | 0.00 | 0.00 | 43 | 1000.5 |
| 20260504141252 | 60 | 250 | 6.1 | 12.2 | 0.00 | 0.00 | 0.00 | 46 | 1000.1 |
| 20260504140749 | 60 | 214 | 8.7 | 12.2 | 0.00 | 0.00 | 0.00 | 47 | 1000.2 |
| 20260504140244 | 60 | 252 | 5.2 | 13.9 | 0.00 | 0.00 | 0.00 | 49 | 1000.0 |
| 20260504130713 | 60 | 214 | 3.5 | 13.9 | 0.00 | 0.00 | 0.00 | 50 | 999.1 |
| 20260504130209 | 60 | 234 | 5.2 | 8.7 | 0.00 | 0.00 | 0.00 | 50 | 999.2 |
| 20260504120133 | 60 | 201 | 9.6 | 14.8 | 0.00 | 0.00 | 0.00 | 47 | 998.6 |
| 20260504110600 | 59 | 152 | 2.6 | 6.1 | 0.00 | 0.00 | 0.00 | 46 | 998.1 |
| 20260504100522 | 56 | 160 | 1.7 | 1.7 | 0.00 | 0.00 | 0.00 | 51 | 999.0 |
| 20260504081916 | 54 | 92 | 0.0 | 2.6 | 0.00 | 0.00 | 0.00 | 51 | 1000.7 |
| 20260504081412 | 53 | 103 | 0.9 | 1.7 | 0.00 | 0.00 | 0.00 | 52 | 1000.7 |
| 20260504080908 | 54 | 73 | 0.9 | 1.7 | 0.00 | 0.00 | 0.00 | 52 | 1000.9 |
| 20260504080405 | 54 | 106 | 0.0 | 2.6 | 0.00 | 0.00 | 0.00 | 51 | 1001.0 |
| 20260504070333 | 56 | 118 | 1.7 | 4.3 | 0.00 | 0.00 | 0.00 | 49 | 1002.2 |
| 20260504050721 | 57 | 147 | 0.9 | 1.7 | 0.00 | 0.00 | 0.00 | 44 | 1004.2 |
| 20260504050218 | 57 | 110 | 0.0 | 1.7 | 0.00 | 0.00 | 0.00 | 44 | 1004.4 |
| 20260504045715 | 58 | 162 | 1.7 | 4.3 | 0.00 | 0.00 | 0.00 | 43 | 1004.4 |
| 20260504045215 | 58 | 125 | 1.7 | 4.3 | 0.00 | 0.00 | 0.00 | 43 | 1004.5 |
| 20260504044714 | 58 | 121 | 0.0 | 0.9 | 0.00 | 0.00 | 0.00 | 44 | 1004.5 |
| 20260504044211 | 58 | 162 | 0.9 | 1.7 | 0.00 | 0.00 | 0.00 | 43 | 1004.7 |
| 20260504043708 | 57 | 130 | 0.9 | 1.7 | 0.00 | 0.00 | 0.00 | 43 | 1004.9 |
| 20260504043204 | 57 | 125 | 0.0 | 1.7 | 0.00 | 0.00 | 0.00 | 44 | 1004.7 |
| 20260504042702 | 57 | 139 | 0.0 | 0.9 | 0.00 | 0.00 | 0.00 | 44 | 1004.7 |
| 20260504042158 | 57 | 122 | 0.9 | 2.6 | 0.00 | 0.00 | 0.00 | 44 | 1004.9 |
| 20260504041654 | 57 | 207 | 0.0 | 0.9 | 0.00 | 0.00 | 0.00 | 44 | 1005.2 |
| 20260504041150 | 58 | 167 | 0.0 | 0.9 | 0.00 | 0.00 | 0.00 | 43 | 1005.2 |
| 20260504040647 | 58 | 236 | 0.0 | 0.9 | 0.00 | 0.00 | 0.00 | 42 | 1005.2 |
| 20260504040144 | 58 | 159 | 3.5 | 5.2 | 0.00 | 0.00 | 0.00 | 44 | 1005.5 |